| time (UTC) | temp F | wind direction | speed MPH | gust MPH | rain 1hr in | rain 24hr in | rain mn in | humidity % | barometer mb |
| 20260901204555 | 81 | 107 | 11.0 | 21.0 | 0.00 | 0.07 | 0.00 | 49 | 1015.5 |
| 20260901203059 | 79 | 144 | 9.0 | 19.0 | 0.00 | 0.07 | 0.00 | 50 | 1015.7 |
| 20260901201600 | 80 | 173 | 11.0 | 21.0 | 0.00 | 0.07 | 0.00 | 48 | 1015.9 |
| 20260901200059 | 79 | 112 | 10.0 | 18.0 | 0.00 | 0.07 | 0.00 | 49 | 1016.0 |
| 20260901194602 | 78 | 144 | 9.0 | 18.0 | 0.00 | 0.07 | 0.00 | 52 | 1016.3 |
| 20260901193105 | 77 | 190 | 9.0 | 18.0 | 0.00 | 0.07 | 0.00 | 52 | 1016.5 |
| 20260901191601 | 76 | 150 | 10.0 | 17.0 | 0.00 | 0.07 | 0.00 | 54 | 1016.6 |
| 20260901190056 | 76 | 97 | 7.0 | 14.0 | 0.00 | 0.07 | 0.00 | 52 | 1016.7 |
| 20260901184600 | 76 | 184 | 10.0 | 19.0 | 0.00 | 0.07 | 0.00 | 52 | 1017.0 |
| 20260901183116 | 75 | 151 | 7.0 | 13.0 | 0.00 | 0.07 | 0.00 | 56 | 1017.0 |
| 20260901181600 | 75 | 182 | 5.0 | 13.0 | 0.00 | 0.07 | 0.00 | 55 | 1017.4 |
| 20260901180055 | 75 | 175 | 7.0 | 15.0 | 0.00 | 0.07 | 0.00 | 56 | 1017.5 |
| 20260901174603 | 76 | 168 | 9.0 | 17.0 | 0.00 | 0.07 | 0.00 | 53 | 1017.5 |
| 20260901173146 | 76 | 192 | 6.0 | 13.0 | 0.00 | 0.07 | 0.00 | 55 | 1017.5 |
| 20260901171603 | 76 | 192 | 6.0 | 15.0 | 0.00 | 0.07 | 0.00 | 57 | 1017.6 |
| 20260901164603 | 73 | 97 | 3.0 | 11.0 | 0.00 | 0.07 | 0.00 | 62 | 1017.6 |
| 20260901163116 | 72 | 113 | 6.0 | 11.0 | 0.00 | 0.07 | 0.00 | 64 | 1017.6 |
| 20260901161607 | 70 | 98 | 3.0 | 10.0 | 0.00 | 0.07 | 0.00 | 65 | 1017.6 |
| 20260901160105 | 70 | 151 | 4.0 | 12.0 | 0.00 | 0.07 | 0.00 | 66 | 1017.6 |
| 20260901154605 | 69 | 115 | 7.0 | 12.0 | 0.00 | 0.07 | 0.00 | 66 | 1017.8 |
| 20260901153058 | 68 | 174 | 5.0 | 13.0 | 0.00 | 0.07 | 0.00 | 68 | 1017.8 |
| 20260901151601 | 67 | 142 | 6.0 | 11.0 | 0.00 | 0.07 | 0.00 | 70 | 1017.8 |
| 20260901150107 | 65 | 153 | 6.0 | 11.0 | 0.00 | 0.07 | 0.00 | 75 | 1017.8 |
| 20260901144559 | 64 | 147 | 2.0 | 8.0 | 0.00 | 0.07 | 0.00 | 79 | 1017.8 |
| 20260901143107 | 62 | 130 | 3.0 | 8.0 | 0.00 | 0.07 | 0.00 | 82 | 1017.7 |
| 20260901141614 | 59 | 167 | 3.0 | 6.0 | 0.00 | 0.07 | 0.00 | 83 | 1017.6 |
| 20260901134555 | 56 | 101 | 4.0 | 8.0 | 0.00 | 0.07 | 0.00 | 83 | 1017.5 |
| 20260901133058 | 55 | 97 | 5.0 | 9.0 | 0.00 | 0.07 | 0.00 | 82 | 1017.5 |
| 20260901131604 | 54 | 118 | 4.0 | 7.0 | 0.00 | 0.07 | 0.00 | 81 | 1017.4 |
| 20260901124602 | 55 | 111 | 3.0 | 6.0 | 0.00 | 0.07 | 0.00 | 81 | 1017.2 |
| 20260901123056 | 55 | 122 | 1.0 | 4.0 | 0.00 | 0.07 | 0.00 | 81 | 1017.3 |
| 20260901121605 | 55 | 119 | 1.0 | 7.0 | 0.00 | 0.07 | 0.00 | 80 | 1017.4 |
| 20260901120110 | 55 | 90 | 1.0 | 4.0 | 0.00 | 0.07 | 0.00 | 80 | 1017.3 |
| 20260901114604 | 56 | 73 | 1.0 | 5.0 | 0.00 | 0.07 | 0.00 | 80 | 1017.1 |
| 20260901113056 | 56 | 91 | 3.0 | 7.0 | 0.00 | 0.07 | 0.00 | 80 | 1017.1 |
| 20260901111607 | 56 | 103 | 3.0 | 4.0 | 0.00 | 0.07 | 0.00 | 80 | 1017.1 |
| 20260901110103 | 57 | 98 | 4.0 | 6.0 | 0.00 | 0.07 | 0.00 | 80 | 1017.2 |
| 20260901104602 | 57 | 105 | 3.0 | 4.0 | 0.00 | 0.07 | 0.00 | 80 | 1017.4 |
| 20260901103100 | 57 | 126 | 1.0 | 7.0 | 0.00 | 0.07 | 0.00 | 80 | 1017.5 |
| 20260901101607 | 57 | 132 | 3.0 | 10.0 | 0.00 | 0.07 | 0.00 | 80 | 1017.5 |
| 20260901100107 | 57 | 135 | 4.0 | 8.0 | 0.00 | 0.07 | 0.00 | 80 | 1017.4 |
| 20260901094601 | 57 | 70 | 1.0 | 5.0 | 0.00 | 0.07 | 0.00 | 79 | 1017.4 |
| 20260901093100 | 58 | 0 | 1.0 | 8.0 | 0.00 | 0.07 | 0.00 | 79 | 1017.4 |
| 20260901091606 | 58 | 120 | 3.0 | 8.0 | 0.00 | 0.07 | 0.00 | 79 | 1017.3 |
| 20260901084621 | 59 | 0 | 4.0 | 9.0 | 0.00 | 0.07 | 0.00 | 79 | 1017.3 |
| 20260901083054 | 60 | 120 | 3.0 | 9.0 | 0.00 | 0.07 | 0.00 | 79 | 1017.3 |
| 20260901081600 | 60 | 117 | 6.0 | 9.0 | 0.00 | 0.07 | 0.00 | 79 | 1017.5 |
| 20260901080113 | 60 | 121 | 5.0 | 10.0 | 0.00 | 0.07 | 0.00 | 79 | 1017.6 |
| 20260901074619 | 60 | 175 | 6.0 | 11.0 | 0.00 | 0.07 | 0.00 | 79 | 1017.5 |
| 20260901073059 | 60 | 142 | 3.0 | 8.0 | 0.00 | 0.07 | 0.00 | 79 | 1017.7 |
| 20260901071604 | 61 | 151 | 2.0 | 5.0 | 0.00 | 0.07 | 0.00 | 79 | 1017.5 |
| 20260901064557 | 61 | 0 | 0.0 | 6.0 | 0.00 | 0.07 | 0.00 | 78 | 1017.8 |
| 20260901063102 | 61 | 119 | 5.0 | 9.0 | 0.00 | 0.07 | 0.00 | 78 | 1017.6 |
| 20260901061558 | 61 | 100 | 6.0 | 10.0 | 0.00 | 0.07 | 0.00 | 78 | 1017.6 |
| 20260901054600 | 60 | 122 | 7.0 | 12.0 | 0.00 | 0.07 | 0.07 | 78 | 1017.9 |
| 20260901053102 | 60 | 93 | 7.0 | 14.0 | 0.00 | 0.07 | 0.07 | 79 | 1018.1 |
| 20260901051606 | 60 | 132 | 7.0 | 13.0 | 0.00 | 0.07 | 0.07 | 79 | 1018.1 |
| 20260901044606 | 60 | 0 | 2.0 | 6.0 | 0.00 | 0.07 | 0.07 | 78 | 1018.4 |
| 20260901043109 | 60 | 140 | 3.0 | 9.0 | 0.00 | 0.07 | 0.07 | 78 | 1018.2 |
| 20260901041617 | 60 | 148 | 6.0 | 9.0 | 0.00 | 0.07 | 0.07 | 78 | 1018.5 |
| 20260901040135 | 60 | 130 | 4.0 | 8.0 | 0.00 | 0.07 | 0.07 | 78 | 1018.6 |
| 20260901034558 | 60 | 109 | 5.0 | 9.0 | 0.00 | 0.07 | 0.07 | 78 | 1018.5 |
| 20260901033059 | 60 | 165 | 4.0 | 9.0 | 0.00 | 0.07 | 0.07 | 77 | 1018.5 |
| 20260901031557 | 61 | 132 | 1.0 | 4.0 | 0.00 | 0.07 | 0.07 | 77 | 1018.2 |
| 20260901030057 | 61 | 155 | 4.0 | 7.0 | 0.00 | 0.07 | 0.07 | 77 | 1018.4 |
| 20260901024558 | 61 | 182 | 4.0 | 11.0 | 0.00 | 0.07 | 0.07 | 77 | 1018.1 |
| 20260901023103 | 61 | 116 | 4.0 | 11.0 | 0.01 | 0.07 | 0.07 | 77 | 1018.0 |
| 20260901021556 | 61 | 145 | 7.0 | 16.0 | 0.01 | 0.07 | 0.07 | 77 | 1018.2 |
| 20260901020059 | 61 | 114 | 10.0 | 20.0 | 0.01 | 0.07 | 0.07 | 77 | 1018.4 |
| 20260901014556 | 61 | 111 | 11.0 | 19.0 | 0.01 | 0.07 | 0.07 | 77 | 1018.6 |
| 20260901013100 | 61 | 127 | 9.0 | 21.0 | 0.02 | 0.06 | 0.06 | 77 | 1018.5 |
| 20260901011556 | 62 | 105 | 16.0 | 27.0 | 0.05 | 0.06 | 0.06 | 77 | 1018.5 |
| 20260901010113 | 62 | 130 | 19.0 | 31.0 | 0.05 | 0.06 | 0.06 | 77 | 1018.3 |
| 20260901004603 | 62 | 118 | 20.0 | 36.0 | 0.05 | 0.05 | 0.05 | 76 | 1018.2 |
| 20260901003104 | 63 | 105 | 22.0 | 42.0 | 0.04 | 0.04 | 0.04 | 71 | 1017.9 |
| 20260901001555 | 66 | 89 | 28.0 | 42.0 | 0.01 | 0.01 | 0.01 | 65 | 1016.8 |
| 20260901000100 | 67 | 104 | 27.0 | 42.0 | 0.01 | 0.01 | 0.01 | 61 | 1016.7 |
| 20260831234556 | 70 | 111 | 21.0 | 32.0 | 0.00 | 0.00 | 0.00 | 54 | 1016.1 |
| 20260831233055 | 73 | 161 | 8.0 | 18.0 | 0.00 | 0.00 | 0.00 | 51 | 1015.7 |
| 20260831231600 | 75 | 360 | 12.0 | 20.0 | 0.00 | 0.00 | 0.00 | 50 | 1015.3 |
| 20260831230114 | 77 | 279 | 3.0 | 6.0 | 0.00 | 0.00 | 0.00 | 52 | 1014.9 |
| 20260831224557 | 78 | 296 | 2.0 | 6.0 | 0.00 | 0.00 | 0.00 | 50 | 1014.7 |
| 20260831223110 | 79 | 284 | 3.0 | 6.0 | 0.00 | 0.00 | 0.00 | 48 | 1014.4 |
| 20260831221600 | 79 | 336 | 2.0 | 5.0 | 0.00 | 0.00 | 0.00 | 49 | 1014.5 |
| 20260831220058 | 80 | 310 | 2.0 | 4.0 | 0.00 | 0.00 | 0.00 | 49 | 1014.5 |
| 20260831214611 | 80 | 253 | 0.0 | 3.0 | 0.00 | 0.00 | 0.00 | 50 | 1014.7 |
| 20260831213106 | 80 | 292 | 1.0 | 6.0 | 0.00 | 0.00 | 0.00 | 49 | 1014.8 |
| 20260831211559 | 81 | 327 | 1.0 | 4.0 | 0.00 | 0.00 | 0.00 | 46 | 1015.0 |
| 20260831210100 | 81 | 178 | 3.0 | 4.0 | 0.00 | 0.00 | 0.00 | 45 | 1015.2 |